DW9210 Weather Reports


time (UTC)temp
C
wind
direction
speed
KPH
gust
KPH
rain 1hr
cm
rain 24hr
cm
rain mn
cm
humidity
%
barometer
mb
20260902025003 23 0 0.0 0.0 0.00 0.00 0.00 94 1015.7
20260902024503 23 0 0.0 0.0 0.00 0.00 0.00 93 1015.7
20260902024003 23 0 0.0 0.0 0.00 0.00 0.00 93 1015.8
20260902023503 23 0 0.0 0.0 0.00 0.00 0.00 94 1015.7
20260902023003 23 0 0.0 0.0 0.00 0.00 0.00 94 1015.6
20260902022524 23 0 0.0 0.0 0.00 0.00 0.00 93 1015.6
20260902022003 23 0 0.0 0.0 0.00 0.00 0.00 92 1015.7
20260902021524 23 0 0.0 0.0 0.00 0.00 0.00 93 1015.6
20260902021003 23 0 0.0 0.0 0.00 0.00 0.00 93 1015.6
20260902020503 23 0 0.0 0.0 0.00 0.00 0.00 92 1015.6
20260902020024 24 0 0.0 0.0 0.00 0.00 0.00 92 1015.5
20260902015503 24 0 0.0 0.0 0.00 0.00 0.00 92 1015.5
20260902015024 24 0 0.0 0.0 0.00 0.00 0.00 91 1015.6
20260902014503 24 0 0.0 0.0 0.00 0.00 0.00 91 1015.5
20260902014003 24 0 0.0 0.0 0.00 0.00 0.00 91 1015.5
20260902013503 25 0 0.0 0.0 0.00 0.00 0.00 90 1015.5
20260902013024 25 0 0.0 0.0 0.00 0.00 0.00 89 1015.5
20260902012503 25 0 0.0 0.0 0.00 0.00 0.00 89 1015.4
20260902012024 25 0 0.0 0.0 0.00 0.00 0.00 89 1015.4
20260902011503 25 0 0.0 0.0 0.00 0.00 0.00 87 1015.3
20260902011024 25 0 0.0 0.0 0.00 0.00 0.00 85 1015.3
20260902010503 25 0 0.0 0.0 0.00 0.00 0.00 85 1015.2
20260902010003 26 0 0.0 0.0 0.00 0.00 0.00 85 1015.2
20260902005503 26 0 0.0 0.0 0.00 0.00 0.00 83 1015.1
20260902005024 26 0 0.0 0.0 0.00 0.00 0.00 82 1015.1
20260902004503 26 0 0.0 0.0 0.00 0.00 0.00 82 1015.1
20260902004003 27 0 0.0 0.0 0.00 0.00 0.00 81 1015.0
20260902003503 27 0 0.0 0.0 0.00 0.00 0.00 81 1015.0
20260902003003 27 0 0.0 0.0 0.00 0.00 0.00 80 1014.9
20260902002524 27 0 0.0 0.0 0.00 0.00 0.00 79 1015.0
20260902002003 28 0 0.0 0.0 0.00 0.00 0.00 79 1015.0
20260902001524 28 231 0.0 1.6 0.00 0.00 0.00 76 1015.0
20260902001003 28 231 0.0 1.6 0.00 0.00 0.00 76 1015.1
20260902000503 29 0 0.0 0.0 0.00 0.00 0.00 75 1015.1
20260902000003 29 0 0.0 0.0 0.00 0.00 0.00 74 1015.1
20260901235503 30 229 0.0 1.6 0.00 0.00 0.00 73 1015.1
20260901235024 30 236 1.6 3.2 0.00 0.00 0.00 73 1015.2
20260901234503 31 240 0.0 3.2 0.00 0.00 0.00 72 1015.2
20260901234003 31 240 0.0 1.6 0.00 0.00 0.00 70 1015.3
20260901233503 31 240 0.0 3.2 0.00 0.00 0.00 69 1015.2
20260901233003 32 241 0.0 3.2 0.00 0.00 0.00 64 1015.3
20260901232503 32 241 0.0 1.6 0.00 0.00 0.00 63 1015.3
20260901232003 33 241 0.0 3.2 0.00 0.00 0.00 63 1015.4
20260901231503 33 241 1.6 3.2 0.00 0.00 0.00 59 1015.3
20260901231024 33 241 1.6 3.2 0.00 0.00 0.00 59 1015.4
20260901230503 33 254 1.6 3.2 0.00 0.00 0.00 59 1015.3
20260901230024 33 257 1.6 6.4 0.00 0.00 0.00 60 1015.4
20260901225503 33 255 3.2 8.0 0.00 0.00 0.00 57 1015.3
20260901225003 33 262 3.2 8.0 0.00 0.00 0.00 58 1015.4
20260901224503 33 258 3.2 8.0 0.00 0.00 0.00 58 1015.3
20260901224003 33 259 3.2 8.0 0.00 0.00 0.00 58 1015.4
20260901223503 33 266 3.2 6.4 0.00 0.00 0.00 58 1015.4
20260901223003 33 252 3.2 6.4 0.00 0.00 0.00 58 1015.4
20260901222503 33 243 1.6 6.4 0.00 0.00 0.00 58 1015.4
20260901222003 33 242 0.0 3.2 0.00 0.00 0.00 57 1015.4
20260901221503 33 243 0.0 4.8 0.00 0.00 0.00 63 1015.3
20260901221003 33 267 1.6 6.4 0.00 0.00 0.00 60 1015.3
20260901220503 33 271 3.2 8.0 0.00 0.00 0.00 56 1015.3
20260901220003 34 264 4.8 11.3 0.00 0.00 0.00 53 1015.2
20260901215503 35 252 3.2 11.3 0.00 0.00 0.00 54 1015.2
20260901215003 34 221 1.6 4.8 0.00 0.00 0.00 54 1015.2
20260901214503 34 220 0.0 3.2 0.00 0.00 0.00 54 1015.2
20260901214024 34 244 1.6 6.4 0.00 0.00 0.00 60 1015.2
20260901213503 34 247 3.2 6.4 0.00 0.00 0.00 56 1015.2
20260901213003 34 245 3.2 8.0 0.00 0.00 0.00 54 1015.2
20260901212503 34 234 1.6 8.0 0.00 0.00 0.00 52 1015.2
20260901212024 34 221 1.6 6.4 0.00 0.00 0.00 55 1015.3
20260901211503 34 230 1.6 6.4 0.00 0.00 0.00 56 1015.3
20260901211003 33 243 3.2 6.4 0.00 0.00 0.00 53 1015.3
20260901210524 33 251 3.2 11.3 0.00 0.00 0.00 54 1015.3
20260901210003 34 260 4.8 11.3 0.00 0.00 0.00 54 1015.3
20260901205524 34 270 6.4 12.9 0.00 0.00 0.00 54 1015.3
20260901205003 35 265 6.4 12.9 0.00 0.00 0.00 53 1015.4
20260901204503 35 256 4.8 11.3 0.00 0.00 0.00 52 1015.4
20260901204003 35 248 3.2 9.7 0.00 0.00 0.00 52 1015.5
20260901203524 35 243 3.2 9.7 0.00 0.00 0.00 54 1015.5
20260901203003 35 238 3.2 11.3 0.00 0.00 0.00 52 1015.6
20260901202503 34 238 3.2 11.3 0.00 0.00 0.00 54 1015.6
20260901202003 34 253 6.4 12.9 0.00 0.00 0.00 53 1015.6
20260901201503 34 260 8.0 14.5 0.00 0.00 0.00 52 1015.7
20260901201003 34 257 8.0 14.5 0.00 0.00 0.00 54 1015.7
20260901200503 33 253 4.8 14.5 0.00 0.00 0.00 55 1015.8
20260901200003 33 268 1.6 8.0 0.00 0.00 0.00 57 1015.7
20260901195503 33 266 4.8 12.9 0.00 0.00 0.00 56 1015.9
20260901195024 34 253 4.8 12.9 0.00 0.00 0.00 57 1015.9
20260901194503 34 240 4.8 9.7 0.00 0.00 0.00 51 1015.9
20260901194003 34 240 3.2 9.7 0.00 0.00 0.00 53 1016.0
20260901193503 34 262 4.8 16.1 0.00 0.00 0.00 53 1016.0
20260901193003 34 261 6.4 16.1 0.00 0.00 0.00 56 1016.0
20260901192503 34 243 4.8 14.5 0.00 0.00 0.00 54 1016.1
20260901192003 33 254 4.8 14.5 0.00 0.00 0.00 53 1016.2
20260901191503 33 288 3.2 6.4 0.00 0.00 0.00 59 1016.2
20260901191024 33 267 3.2 8.0 0.00 0.00 0.00 56 1016.3
20260901190524 33 246 3.2 11.3 0.00 0.00 0.00 57 1016.3
20260901190003 34 242 3.2 12.9 0.00 0.00 0.00 56 1016.4
20260901185503 33 253 4.8 12.9 0.00 0.00 0.00 56 1016.5
20260901185024 33 271 4.8 12.9 0.00 0.00 0.00 55 1016.5
20260901184503 33 241 4.8 12.9 0.00 0.00 0.00 55 1016.5
20260901184003 33 232 3.2 9.7 0.00 0.00 0.00 55 1016.5
20260901183524 33 273 4.8 11.3 0.00 0.00 0.00 55 1016.7
20260901183003 33 274 6.4 14.5 0.00 0.00 0.00 58 1016.7
20260901182503 33 274 4.8 14.5 0.00 0.00 0.00 59 1016.8
20260901182003 33 273 4.8 9.7 0.00 0.00 0.00 62 1016.8
20260901181524 33 267 4.8 12.9 0.00 0.00 0.00 59 1016.8
20260901181003 33 268 4.8 14.5 0.00 0.00 0.00 59 1016.8
20260901180524 33 261 4.8 14.5 0.00 0.00 0.00 59 1016.9
20260901180003 33 263 6.4 14.5 0.00 0.00 0.00 58 1016.9
20260901175524 33 264 3.2 14.5 0.00 0.00 0.00 60 1016.9
20260901175003 33 240 3.2 12.9 0.00 0.00 0.00 60 1016.9
20260901174503 33 245 4.8 12.9 0.00 0.00 0.00 58 1017.0
20260901174003 33 245 6.4 14.5 0.00 0.00 0.00 59 1017.0
20260901173503 33 252 6.4 14.5 0.00 0.00 0.00 58 1017.1
20260901173003 33 262 4.8 14.5 0.00 0.00 0.00 59 1017.1
20260901172503 33 270 4.8 12.9 0.00 0.00 0.00 64 1017.1
20260901172003 32 270 4.8 12.9 0.00 0.00 0.00 63 1017.1
20260901171503 32 271 6.4 12.9 0.00 0.00 0.00 60 1017.3
20260901171003 32 284 6.4 12.9 0.00 0.00 0.00 62 1017.2
20260901170503 32 289 6.4 14.5 0.00 0.00 0.00 67 1017.2
20260901170003 32 275 6.4 14.5 0.00 0.00 0.00 66 1017.3
20260901165503 32 253 4.8 14.5 0.00 0.00 0.00 62 1017.3
20260901165003 32 252 4.8 14.5 0.00 0.00 0.00 60 1017.3
20260901164524 32 261 6.4 19.3 0.00 0.00 0.00 64 1017.3
20260901164003 32 260 6.4 19.3 0.00 0.00 0.00 69 1017.3
20260901163503 32 252 4.8 16.1 0.00 0.00 0.00 63 1017.3
20260901163024 32 245 4.8 16.1 0.00 0.00 0.00 63 1017.3
20260901162503 32 253 6.4 14.5 0.00 0.00 0.00 63 1017.3
20260901162024 31 258 8.0 20.9 0.00 0.00 0.00 63 1017.3
20260901161524 31 261 8.0 20.9 0.00 0.00 0.00 64 1017.4
20260901161003 31 267 8.0 19.3 0.00 0.00 0.00 65 1017.4
20260901160503 32 269 6.4 14.5 0.00 0.00 0.00 64 1017.5
20260901160024 31 271 8.0 14.5 0.00 0.00 0.00 69 1017.5
20260901155524 31 263 8.0 16.1 0.00 0.00 0.00 65 1017.6
20260901155003 31 253 6.4 16.1 0.00 0.00 0.00 66 1017.6
20260901154503 31 259 6.4 16.1 0.00 0.00 0.00 65 1017.7
20260901154003 31 268 6.4 12.9 0.00 0.00 0.00 65 1017.6
20260901153503 31 266 6.4 14.5 0.00 0.00 0.00 69 1017.7
20260901153003 31 261 8.0 14.5 0.00 0.00 0.00 66 1017.7
20260901152524 31 263 8.0 16.1 0.00 0.00 0.00 65 1017.8
20260901152003 31 265 8.0 16.1 0.00 0.00 0.00 67 1017.8
20260901151503 31 267 6.4 14.5 0.00 0.00 0.00 66 1017.7
20260901151003 31 269 6.4 12.9 0.00 0.00 0.00 71 1017.8
20260901150503 31 264 8.0 16.1 0.00 0.00 0.00 67 1017.7
20260901150003 30 262 6.4 16.1 0.00 0.00 0.00 68 1017.7
20260901145503 30 256 4.8 12.9 0.00 0.00 0.00 67 1017.8
20260901145024 30 246 4.8 12.9 0.00 0.00 0.00 70 1017.8
20260901144524 30 242 4.8 12.9 0.00 0.00 0.00 70 1017.6
20260901144003 30 249 3.2 11.3 0.00 0.00 0.00 75 1017.6
20260901143524 30 258 1.6 11.3 0.00 0.00 0.00 70 1017.6
20260901143003 30 0 0.0 0.0 0.00 0.00 0.00 72 1017.6
20260901142503 29 0 0.0 0.0 0.00 0.00 0.00 73 1017.7
20260901142024 29 0 0.0 0.0 0.00 0.00 0.00 76 1017.7
20260901141524 28 0 0.0 0.0 0.00 0.00 0.00 77 1017.7
20260901141003 28 0 0.0 0.0 0.00 0.00 0.00 78 1017.7
20260901140503 28 0 0.0 0.0 0.00 0.00 0.00 77 1017.8
20260901140003 28 0 0.0 0.0 0.00 0.00 0.00 79 1017.8
20260901135503 27 0 0.0 0.0 0.00 0.00 0.00 81 1017.8
20260901135003 27 0 0.0 0.0 0.00 0.00 0.00 80 1017.8
20260901134503 27 0 0.0 0.0 0.00 0.00 0.00 80 1017.8
20260901134003 27 0 0.0 0.0 0.00 0.00 0.00 82 1017.9
20260901133503 27 0 0.0 0.0 0.00 0.00 0.00 82 1017.9
20260901133003 27 0 0.0 0.0 0.00 0.00 0.00 81 1017.9
20260901132503 26 0 0.0 0.0 0.00 0.00 0.00 83 1017.8
20260901132003 26 0 0.0 0.0 0.00 0.00 0.00 84 1017.8
20260901131503 26 0 0.0 0.0 0.00 0.00 0.00 85 1017.8
20260901131003 26 0 0.0 0.0 0.00 0.00 0.00 85 1017.8
20260901130503 25 0 0.0 0.0 0.00 0.00 0.00 86 1017.8
20260901130024 25 0 0.0 0.0 0.00 0.00 0.00 88 1017.9
20260901125503 25 0 0.0 0.0 0.00 0.00 0.00 88 1018.0
20260901125003 24 0 0.0 0.0 0.00 0.00 0.00 91 1018.1
20260901124524 24 0 0.0 0.0 0.00 0.00 0.00 92 1018.1
20260901124003 23 0 0.0 0.0 0.00 0.00 0.00 94 1018.2
20260901123503 23 0 0.0 0.0 0.00 0.00 0.00 94 1018.2
20260901123024 22 0 0.0 0.0 0.00 0.00 0.00 95 1018.2
20260901122503 22 0 0.0 0.0 0.00 0.00 0.00 96 1018.1
20260901122003 22 0 0.0 0.0 0.00 0.00 0.00 98 1018.1
20260901121524 22 0 0.0 0.0 0.00 0.00 0.00 98 1018.2
20260901121003 21 0 0.0 0.0 0.00 0.00 0.00 98 1018.1
20260901120503 21 0 0.0 0.0 0.00 0.00 0.00 98 1017.9
20260901120003 20 0 0.0 0.0 0.00 0.00 0.00 98 1017.9
20260901115503 20 0 0.0 0.0 0.00 0.00 0.00 98 1017.8
20260901115003 20 0 0.0 0.0 0.00 0.00 0.00 98 1017.7
20260901114503 19 0 0.0 0.0 0.00 0.00 0.00 98 1017.7
20260901114003 19 0 0.0 0.0 0.00 0.00 0.00 97 1017.6
20260901113503 19 0 0.0 0.0 0.00 0.00 0.00 97 1017.5
20260901113003 18 0 0.0 0.0 0.00 0.00 0.00 97 1017.5
20260901112524 18 0 0.0 0.0 0.00 0.00 0.00 97 1017.4
20260901112003 18 0 0.0 0.0 0.00 0.00 0.00 97 1017.3
20260901111503 18 0 0.0 0.0 0.00 0.00 0.00 97 1017.3
20260901111024 18 0 0.0 0.0 0.00 0.00 0.00 97 1017.3
20260901110503 18 0 0.0 0.0 0.00 0.00 0.00 97 1017.2
20260901110003 18 0 0.0 0.0 0.00 0.00 0.00 97 1017.1
20260901105503 19 0 0.0 0.0 0.00 0.00 0.00 97 1017.1
20260901105003 19 0 0.0 0.0 0.00 0.00 0.00 97 1017.1
20260901104503 19 0 0.0 0.0 0.00 0.00 0.00 97 1017.0
20260901104003 18 0 0.0 0.0 0.00 0.00 0.00 97 1016.9
20260901103503 18 0 0.0 0.0 0.00 0.00 0.00 97 1016.9
20260901103003 18 0 0.0 0.0 0.00 0.00 0.00 96 1016.8
20260901102503 18 0 0.0 0.0 0.00 0.00 0.00 96 1016.8
20260901102003 19 0 0.0 0.0 0.00 0.00 0.00 96 1016.8
20260901101503 19 0 0.0 0.0 0.00 0.00 0.00 97 1016.7
20260901101003 19 0 0.0 0.0 0.00 0.00 0.00 97 1016.6
20260901100503 19 0 0.0 0.0 0.00 0.00 0.00 96 1016.6
20260901100003 20 0 0.0 0.0 0.00 0.00 0.00 97 1016.6
20260901095503 20 0 0.0 0.0 0.00 0.00 0.00 97 1016.6
20260901095003 19 0 0.0 0.0 0.00 0.00 0.00 97 1016.6
20260901094524 19 0 0.0 0.0 0.00 0.00 0.00 97 1016.6
20260901094003 19 0 0.0 0.0 0.00 0.00 0.00 96 1016.4
20260901093524 20 0 0.0 0.0 0.00 0.00 0.00 97 1016.4
20260901093003 20 0 0.0 0.0 0.00 0.00 0.00 97 1016.3
20260901092503 20 0 0.0 0.0 0.00 0.00 0.00 97 1016.2
20260901092003 19 0 0.0 0.0 0.00 0.00 0.00 96 1016.2
20260901091503 20 0 0.0 0.0 0.00 0.00 0.00 96 1016.1
20260901091003 20 0 0.0 0.0 0.00 0.00 0.00 97 1016.1
20260901090503 20 0 0.0 0.0 0.00 0.00 0.00 97 1015.9
20260901090003 20 0 0.0 0.0 0.00 0.00 0.00 97 1015.8
20260901085524 20 0 0.0 0.0 0.00 0.00 0.00 97 1015.8
20260901085003 20 0 0.0 0.0 0.00 0.00 0.00 97 1015.7
20260901084503 19 0 0.0 0.0 0.00 0.00 0.00 97 1015.7
20260901084003 19 0 0.0 0.0 0.00 0.00 0.00 96 1015.6
20260901083503 19 0 0.0 0.0 0.00 0.00 0.00 96 1015.7
20260901083003 19 0 0.0 0.0 0.00 0.00 0.00 96 1015.6
20260901082524 20 0 0.0 0.0 0.00 0.00 0.00 96 1015.6
20260901082003 20 0 0.0 0.0 0.00 0.00 0.00 96 1015.5
20260901081503 20 0 0.0 0.0 0.00 0.00 0.00 96 1015.4
20260901081003 20 0 0.0 0.0 0.00 0.00 0.00 96 1015.4
20260901080503 20 0 0.0 0.0 0.00 0.00 0.00 97 1015.4
20260901080024 20 0 0.0 0.0 0.00 0.00 0.00 97 1015.4
20260901075524 20 0 0.0 0.0 0.00 0.00 0.00 97 1015.4
20260901075003 20 0 0.0 0.0 0.00 0.00 0.00 97 1015.4
20260901074524 20 0 0.0 0.0 0.00 0.00 0.00 96 1015.4
20260901074003 20 0 0.0 0.0 0.00 0.00 0.00 96 1015.4
20260901073503 20 0 0.0 0.0 0.00 0.00 0.00 96 1015.4
20260901073003 20 0 0.0 0.0 0.00 0.00 0.00 96 1015.6
20260901072503 20 0 0.0 0.0 0.00 0.00 0.00 96 1015.5
20260901072003 20 0 0.0 0.0 0.00 0.00 0.00 96 1015.5
20260901071524 20 0 0.0 0.0 0.00 0.00 0.00 96 1015.6
20260901071024 20 0 0.0 0.0 0.00 0.00 0.00 96 1015.6
20260901070503 20 0 0.0 0.0 0.00 0.00 0.00 96 1015.7
20260901070003 20 0 0.0 0.0 0.00 0.00 0.00 96 1015.8
20260901065524 20 0 0.0 0.0 0.00 0.00 0.00 96 1015.7
20260901065003 20 0 0.0 0.0 0.00 0.00 0.00 95 1015.8
20260901064503 20 0 0.0 0.0 0.00 0.00 0.00 95 1015.8
20260901064003 20 0 0.0 0.0 0.00 0.00 0.00 96 1015.8
20260901063503 20 0 0.0 0.0 0.00 0.00 0.00 96 1015.9
20260901063003 20 0 0.0 0.0 0.00 0.00 0.00 96 1016.0
20260901062503 20 0 0.0 0.0 0.00 0.00 0.00 96 1016.1
20260901062024 20 0 0.0 0.0 0.00 0.00 0.00 96 1016.2
20260901061503 20 0 0.0 0.0 0.00 0.00 0.00 96 1016.2
20260901061003 20 0 0.0 0.0 0.00 0.00 0.00 96 1016.3
20260901060503 20 0 0.0 0.0 0.00 0.00 0.00 96 1016.3
20260901060003 20 0 0.0 0.0 0.00 0.00 0.00 96 1016.3
20260901055524 20 0 0.0 0.0 0.00 0.00 0.00 96 1016.4
20260901055003 20 0 0.0 0.0 0.00 0.00 0.00 95 1016.4
20260901054503 20 0 0.0 0.0 0.00 0.00 0.00 95 1016.4
20260901054003 21 0 0.0 0.0 0.00 0.00 0.00 95 1016.6
20260901053524 21 0 0.0 0.0 0.00 0.00 0.00 96 1016.5
20260901053003 21 0 0.0 0.0 0.00 0.00 0.00 95 1016.5
20260901052503 21 0 0.0 0.0 0.00 0.00 0.00 95 1016.7
20260901052003 21 0 0.0 0.0 0.00 0.00 0.00 95 1016.6
20260901051524 21 0 0.0 0.0 0.00 0.00 0.00 95 1016.6
20260901051003 21 0 0.0 0.0 0.00 0.00 0.00 96 1016.7
20260901050503 21 0 0.0 0.0 0.00 0.00 0.00 96 1016.6
20260901050003 21 0 0.0 0.0 0.00 0.00 0.00 95 1016.6
20260901045503 21 0 0.0 0.0 0.00 0.00 0.00 95 1016.6
20260901045003 21 0 0.0 0.0 0.00 0.00 0.00 95 1016.6
20260901044505 21 0 0.0 0.0 0.00 0.00 0.00 96 1016.7
20260901044003 21 0 0.0 0.0 0.00 0.00 0.00 95 1016.8
20260901043524 21 0 0.0 0.0 0.00 0.00 0.00 95 1016.9
20260901043003 21 0 0.0 0.0 0.00 0.00 0.00 95 1016.8
20260901042524 21 0 0.0 0.0 0.00 0.00 0.00 95 1016.7
20260901042003 21 0 0.0 0.0 0.00 0.00 0.00 95 1016.7
20260901041503 21 0 0.0 0.0 0.00 0.00 0.00 95 1016.7
20260901041024 21 0 0.0 0.0 0.00 0.00 0.00 95 1016.6
20260901040524 21 0 0.0 0.0 0.00 0.00 0.00 95 1016.6
20260901040024 21 0 0.0 0.0 0.00 0.00 0.00 95 1016.6
20260901035503 21 0 0.0 0.0 0.00 0.00 0.00 95 1016.6
20260901035003 21 0 0.0 0.0 0.00 0.00 0.00 94 1016.7
20260901034503 21 0 0.0 0.0 0.00 0.00 0.00 94 1016.7
20260901034024 22 0 0.0 0.0 0.00 0.00 0.00 94 1016.6
20260901033503 22 0 0.0 0.0 0.00 0.00 0.00 94 1016.6
20260901033003 22 0 0.0 0.0 0.00 0.00 0.00 94 1016.6
20260901032503 22 0 0.0 0.0 0.00 0.00 0.00 94 1016.6
20260901032003 22 0 0.0 0.0 0.00 0.00 0.00 94 1016.6
20260901031503 22 0 0.0 0.0 0.00 0.00 0.00 94 1016.6
20260901031003 22 0 0.0 0.0 0.00 0.00 0.00 93 1016.5
20260901030503 22 0 0.0 0.0 0.00 0.00 0.00 93 1016.4
20260901030024 22 0 0.0 0.0 0.00 0.00 0.00 93 1016.5
20260901025524 22 0 0.0 0.0 0.00 0.00 0.00 93 1016.6